GW5351 Weather Reports


Display with metric or nautical units.
time (UTC)temp
F
wind
direction
speed
MPH
gust
MPH
rain 1hr
in
rain 24hr
in
rain mn
in
humidity
%
barometer
mb
20260504070257 59 197 0.0 0.0 0.00 0.00 0.00 86 1018.3
20260504060218 60 197 0.0 0.0 0.00 0.00 0.00 79 1018.8
20260504050646 62 197 0.0 0.0 0.00 0.00 0.00 74 1019.1
20260504050143 62 197 0.0 0.0 0.00 0.00 0.00 72 1019.1
20260504045640 63 197 0.0 0.0 0.00 0.00 0.00 72 1019.1
20260504045140 63 197 0.0 0.0 0.00 0.00 0.00 71 1019.2
20260504044638 63 197 0.0 0.0 0.00 0.00 0.00 70 1019.3
20260504044135 63 220 0.0 0.0 0.00 0.00 0.00 71 1019.2
20260504043632 64 220 0.0 0.0 0.00 0.00 0.00 69 1019.4
20260504043129 64 198 0.0 0.0 0.00 0.00 0.00 68 1019.3
20260504042626 64 187 0.0 1.0 0.00 0.00 0.00 67 1019.2
20260504042123 64 216 0.0 0.0 0.00 0.00 0.00 67 1019.3
20260504041618 64 217 0.0 1.0 0.00 0.00 0.00 67 1019.2
20260504041115 65 215 0.0 1.0 0.00 0.00 0.00 67 1019.4
20260504040612 65 214 0.0 2.0 0.00 0.00 0.00 66 1019.4
20260504040109 65 191 0.0 0.0 0.00 0.00 0.00 65 1019.4
20260504035606 65 220 0.0 0.0 0.00 0.00 0.00 66 1019.4
20260504035102 65 229 1.0 1.0 0.00 0.00 0.00 65 1019.4
20260504034600 65 192 0.0 0.0 0.00 0.00 0.00 64 1019.4
20260504034056 66 191 0.0 1.0 0.00 0.00 0.00 64 1019.3
20260504033554 66 219 0.0 1.0 0.00 0.00 0.00 64 1019.3
20260504033052 67 221 1.0 1.0 0.00 0.00 0.00 62 1019.6
20260504032549 67 191 0.0 1.0 0.00 0.00 0.00 61 1019.3
20260504032045 67 197 0.0 0.0 0.00 0.00 0.00 61 1019.2
20260504031542 67 197 0.0 1.0 0.00 0.00 0.00 60 1019.1
20260504031038 67 203 1.0 2.0 0.00 0.00 0.00 59 1019.1
20260504030536 67 191 0.0 3.0 0.00 0.00 0.00 60 1019.1
20260504030032 68 190 2.0 2.0 0.00 0.00 0.00 59 1019.0
20260504025529 68 191 1.0 2.0 0.00 0.00 0.00 59 1019.0
20260504025026 68 189 2.0 3.0 0.00 0.00 0.00 58 1018.8
20260504024523 68 210 3.0 4.0 0.00 0.00 0.00 58 1019.0
20260504024020 68 156 2.0 4.0 0.00 0.00 0.00 59 1018.9
20260504023516 68 214 0.0 3.0 0.00 0.00 0.00 59 1019.0
20260504023012 68 197 0.0 2.0 0.00 0.00 0.00 59 1018.9
20260504022508 68 190 0.0 1.0 0.00 0.00 0.00 59 1018.9
20260504022005 69 210 0.0 3.0 0.00 0.00 0.00 58 1018.8
20260504021503 68 262 1.0 3.0 0.00 0.00 0.00 58 1018.8
20260504020959 68 204 1.0 2.0 0.00 0.00 0.00 59 1018.7
20260504020456 68 209 0.0 2.0 0.00 0.00 0.00 59 1018.6
20260504015953 68 191 0.0 0.0 0.00 0.00 0.00 60 1018.7
20260504015449 68 191 0.0 0.0 0.00 0.00 0.00 61 1018.5
20260504014945 69 191 0.0 0.0 0.00 0.00 0.00 57 1018.4
20260504014441 69 191 0.0 0.0 0.00 0.00 0.00 56 1018.4
20260504013938 70 191 0.0 0.0 0.00 0.00 0.00 55 1018.3
20260504013437 70 190 0.0 1.0 0.00 0.00 0.00 54 1018.4
20260504012932 71 187 0.0 2.0 0.00 0.00 0.00 53 1018.3
20260504012431 71 209 0.0 1.0 0.00 0.00 0.00 52 1018.3
20260504011928 71 186 1.0 1.0 0.00 0.00 0.00 51 1018.2
20260504011424 71 172 1.0 2.0 0.00 0.00 0.00 51 1018.2
20260504010920 72 204 1.0 2.0 0.00 0.00 0.00 50 1018.2
20260504010416 71 211 2.0 3.0 0.00 0.00 0.00 50 1018.2
20260504005913 71 191 0.0 0.0 0.00 0.00 0.00 51 1018.2
20260504005409 72 191 0.0 0.0 0.00 0.00 0.00 50 1018.3
20260504004907 73 191 0.0 0.0 0.00 0.00 0.00 50 1018.2
20260504004405 73 191 0.0 0.0 0.00 0.00 0.00 48 1018.2
20260504003901 74 191 0.0 0.0 0.00 0.00 0.00 48 1018.2
20260504003358 74 190 0.0 1.0 0.00 0.00 0.00 47 1018.3
20260504002854 75 190 0.0 1.0 0.00 0.00 0.00 46 1018.4
20260504002351 76 220 2.0 2.0 0.00 0.00 0.00 43 1018.4
20260504001849 77 191 0.0 0.0 0.00 0.00 0.00 43 1018.4
20260504001346 77 166 2.0 2.0 0.00 0.00 0.00 42 1018.2
20260504000843 77 190 1.0 4.0 0.00 0.00 0.00 41 1018.2
20260504000340 77 170 1.0 2.0 0.00 0.00 0.00 40 1018.4
20260503235837 78 207 0.0 3.0 0.00 0.00 0.00 40 1018.4
20260503235335 78 173 1.0 2.0 0.00 0.00 0.00 39 1018.4
20260503234832 79 218 2.0 3.0 0.00 0.00 0.00 38 1018.6
20260503234330 79 237 1.0 1.0 0.00 0.00 0.00 37 1018.3
20260503233827 79 221 1.0 4.0 0.00 0.00 0.00 39 1018.4
20260503233323 79 205 1.0 1.0 0.00 0.00 0.00 38 1018.5
20260503232820 78 210 2.0 4.0 0.00 0.00 0.00 37 1018.5
20260503232317 79 234 1.0 2.0 0.00 0.00 0.00 39 1018.5
20260503231815 80 177 1.0 2.0 0.00 0.00 0.00 36 1018.5
20260503231312 81 199 1.0 4.0 0.00 0.00 0.00 36 1018.7
20260503230808 81 207 2.0 3.0 0.00 0.00 0.00 36 1018.5
20260503230305 80 210 0.0 1.0 0.00 0.00 0.00 36 1018.7
20260503225803 79 229 0.0 3.0 0.00 0.00 0.00 38 1018.7
20260503225258 80 156 2.0 7.0 0.00 0.00 0.00 36 1018.7
20260503224755 79 206 2.0 3.0 0.00 0.00 0.00 37 1018.7
20260503224252 79 155 2.0 3.0 0.00 0.00 0.00 36 1019.0
20260503223750 79 167 4.0 4.0 0.00 0.00 0.00 36 1018.9
20260503223247 80 230 0.0 4.0 0.00 0.00 0.00 36 1018.8
20260503222743 80 204 1.0 2.0 0.00 0.00 0.00 37 1018.8
20260503222241 80 282 1.0 3.0 0.00 0.00 0.00 36 1019.0
20260503221739 80 168 0.0 2.0 0.00 0.00 0.00 36 1019.1
20260503221237 80 227 0.0 2.0 0.00 0.00 0.00 38 1019.3
20260503220733 79 225 0.0 3.0 0.00 0.00 0.00 37 1019.4
20260503220230 80 187 2.0 6.0 0.00 0.00 0.00 38 1019.5
20260503215727 81 156 0.0 2.0 0.00 0.00 0.00 37 1019.3
20260503215224 80 218 1.0 4.0 0.00 0.00 0.00 38 1019.1
20260503214722 80 232 2.0 3.0 0.00 0.00 0.00 37 1019.1
20260503214218 80 202 1.0 4.0 0.00 0.00 0.00 35 1019.1
20260503213717 81 208 0.0 4.0 0.00 0.00 0.00 35 1019.3
20260503213213 81 226 2.0 4.0 0.00 0.00 0.00 35 1019.5
20260503212710 81 147 2.0 3.0 0.00 0.00 0.00 36 1019.7
20260503212208 81 233 0.0 2.0 0.00 0.00 0.00 35 1019.9
20260503211706 82 227 3.0 4.0 0.00 0.00 0.00 34 1019.9
20260503211201 81 181 2.0 4.0 0.00 0.00 0.00 34 1020.0
20260503210657 81 210 1.0 4.0 0.00 0.00 0.00 34 1020.1
20260503210154 81 205 3.0 7.0 0.00 0.00 0.00 37 1020.0
20260503205649 81 202 2.0 6.0 0.00 0.00 0.00 36 1019.9
20260503205146 81 263 4.0 6.0 0.00 0.00 0.00 36 1020.0
20260503204643 82 223 2.0 4.0 0.00 0.00 0.00 34 1020.3
20260503204141 82 253 1.0 3.0 0.00 0.00 0.00 34 1020.2
20260503203637 81 152 2.0 3.0 0.00 0.00 0.00 37 1020.3
20260503203135 80 267 1.0 2.0 0.00 0.00 0.00 38 1020.5
20260503202632 81 253 2.0 4.0 0.00 0.00 0.00 37 1020.5
20260503202130 82 202 2.0 6.0 0.00 0.00 0.00 38 1020.5
20260503201628 82 296 3.0 4.0 0.00 0.00 0.00 38 1020.7
20260503201125 82 251 1.0 2.0 0.00 0.00 0.00 39 1020.9
20260503200621 82 180 3.0 9.0 0.00 0.00 0.00 36 1020.9
20260503200118 81 242 0.0 1.0 0.00 0.00 0.00 36 1021.0
20260503195615 80 241 0.0 3.0 0.00 0.00 0.00 37 1021.2
20260503195112 81 152 3.0 4.0 0.00 0.00 0.00 36 1021.3
20260503194609 81 214 1.0 3.0 0.00 0.00 0.00 35 1021.3
20260503194103 81 323 1.0 4.0 0.00 0.00 0.00 39 1021.3
20260503193600 81 171 4.0 8.0 0.00 0.00 0.00 36 1021.4
20260503193056 82 141 4.0 4.0 0.00 0.00 0.00 36 1021.6
20260503192552 81 200 2.0 3.0 0.00 0.00 0.00 37 1021.5
20260503192048 82 233 1.0 4.0 0.00 0.00 0.00 38 1021.6
20260503191545 81 233 1.0 1.0 0.00 0.00 0.00 38 1021.8
20260503191042 81 294 3.0 4.0 0.00 0.00 0.00 36 1021.9
20260503190539 81 195 1.0 3.0 0.00 0.00 0.00 36 1021.9
20260503190036 81 234 1.0 2.0 0.00 0.00 0.00 39 1022.0
20260503185533 81 209 0.0 2.0 0.00 0.00 0.00 40 1022.1
20260503185032 82 213 0.0 4.0 0.00 0.00 0.00 39 1022.0
20260503184528 81 232 2.0 3.0 0.00 0.00 0.00 38 1022.3
20260503184025 80 230 2.0 3.0 0.00 0.00 0.00 40 1022.1
20260503183522 80 166 1.0 2.0 0.00 0.00 0.00 38 1022.3
20260503183019 79 248 2.0 3.0 0.00 0.00 0.00 40 1022.4
20260503182517 80 179 4.0 4.0 0.00 0.00 0.00 37 1022.5
20260503182015 79 169 2.0 3.0 0.00 0.00 0.00 40 1022.5
20260503181512 80 258 2.0 3.0 0.00 0.00 0.00 40 1022.6
20260503181008 80 194 1.0 3.0 0.00 0.00 0.00 37 1022.8
20260503180506 80 219 0.0 1.0 0.00 0.00 0.00 42 1022.7
20260503180002 79 241 1.0 1.0 0.00 0.00 0.00 41 1022.8
20260503175500 80 245 2.0 4.0 0.00 0.00 0.00 40 1023.1
20260503174956 79 229 2.0 4.0 0.00 0.00 0.00 39 1023.2
20260503174454 79 209 0.0 3.0 0.00 0.00 0.00 43 1023.2
20260503173949 78 163 1.0 3.0 0.00 0.00 0.00 41 1023.4
20260503173445 79 234 4.0 6.0 0.00 0.00 0.00 40 1023.4
20260503172942 78 173 2.0 3.0 0.00 0.00 0.00 40 1023.6
20260503172440 79 207 0.0 3.0 0.00 0.00 0.00 42 1023.6
20260503171936 79 227 1.0 3.0 0.00 0.00 0.00 42 1023.7
20260503171433 79 262 2.0 3.0 0.00 0.00 0.00 43 1023.9
20260503170931 78 182 4.0 4.0 0.00 0.00 0.00 40 1023.8
20260503170426 79 175 3.0 4.0 0.00 0.00 0.00 41 1023.9
20260503150819 74 225 3.0 4.0 0.00 0.00 0.00 54 1023.8
20260503150315 74 185 2.0 3.0 0.00 0.00 0.00 56 1023.6
20260503140239 68 214 0.0 2.0 0.00 0.00 0.00 72 1023.7
20260503131209 56 271 0.0 0.0 0.00 0.00 0.00 99 1023.1
20260503130707 56 271 0.0 0.0 0.00 0.00 0.00 99 1022.9
20260503130204 55 271 0.0 0.0 0.00 0.00 0.00 99 1023.0
20260503120129 50 271 0.0 0.0 0.00 0.00 0.00 99 1022.7
20260503110556 51 271 0.0 0.0 0.00 0.00 0.00 99 1022.4
20260503090444 52 271 0.0 0.0 0.00 0.00 0.00 99 1021.8
20260503081410 53 271 0.0 0.0 0.00 0.00 0.00 99 1021.8
20260503080907 53 271 0.0 0.0 0.00 0.00 0.00 99 1021.9
20260503080404 53 271 0.0 0.0 0.00 0.00 0.00 99 1022.0
20260503072840 54 271 0.0 0.0 0.00 0.00 0.00 99 1021.9
20260503072337 54 271 0.0 0.0 0.00 0.00 0.00 99 1022.0